Date,TemperatureHighF,TemperatureAvgF,TemperatureLowF,DewpointHighF,DewpointAvgF,DewpointLowF,HumidityHigh,HumidityAvg,HumidityLow,PressureMaxIn,PressureMinIn,WindSpeedMaxMPH,WindSpeedAvgMPH,GustSpeedMaxMPH,PrecipitationSumIn
2013-3-1,24,22,21,-100,-100,-100,0,0,100,0.00,40.00,0,-999,0,0.00
2013-3-2,25,22,15,-100,-100,-100,0,0,100,0.00,40.00,0,-999,0,0.00
2013-3-3,29,17,9,-100,-100,-100,0,0,100,0.00,40.00,0,-999,0,0.00
2013-3-4,29,22,14,-100,-100,-100,0,0,100,0.00,40.00,0,-999,0,0.00
2013-3-5,28,27,24,-100,-100,-100,0,0,100,0.00,40.00,0,-999,0,0.00
2013-3-6,28,25,23,-100,-100,-100,0,0,100,0.00,40.00,0,-999,0,0.00
2013-3-7,34,26,21,-100,-100,-100,0,0,100,0.00,40.00,0,-999,0,0.00
2013-3-8,35,26,15,-100,-100,-100,0,0,100,0.00,40.00,0,-999,0,0.00
2013-3-9,36,32,25,-100,-100,-100,0,0,100,0.00,40.00,0,-999,0,0.00
2013-3-10,47,41,34,-100,-100,-100,0,0,100,0.00,40.00,0,-999,0,0.00
2013-3-11,43,36,28,-100,-100,-100,0,0,100,0.00,40.00,0,-999,0,0.00
2013-3-12,32,27,22,-100,-100,-100,0,0,100,0.00,40.00,0,-999,0,0.00
2013-3-13,28,23,18,-100,-100,-100,0,0,100,0.00,40.00,0,-999,0,0.00
2013-3-14,31,25,19,-100,-100,-100,0,0,100,0.00,40.00,0,-999,0,0.00
2013-3-15,40,30,25,-100,-100,-100,0,0,100,0.00,40.00,0,-999,0,0.00
2013-3-16,29,28,26,-100,-100,-100,0,0,100,0.00,40.00,0,-999,0,0.00
2013-3-17,32,26,23,-100,-100,-100,0,0,100,0.00,40.00,0,-999,0,0.00
2013-3-18,30,26,22,-100,-100,-100,0,0,100,0.00,40.00,0,-999,0,0.00
2013-3-19,29,20,14,-100,-100,-100,0,0,100,0.00,40.00,0,-999,0,0.00
2013-3-20,21,16,10,-100,-100,-100,0,0,100,0.00,40.00,0,-999,0,0.00
2013-3-21,29,20,8,-100,-100,-100,0,0,100,0.00,40.00,0,-999,0,0.00
2013-3-22,36,26,15,-100,-100,-100,0,0,100,0.00,40.00,0,-999,0,0.00
2013-3-23,36,25,21,-100,-100,-100,0,0,100,0.00,40.00,0,-999,0,0.00
2013-3-24,30,27,25,-100,-100,-100,0,0,100,0.00,40.00,0,-999,0,0.00
2013-3-25,31,27,24,-100,-100,-100,0,0,100,0.00,40.00,0,-999,0,0.00
2013-3-26,35,30,25,-100,-100,-100,0,0,100,0.00,40.00,0,-999,0,0.00
2013-3-27,36,30,25,-100,-100,-100,0,0,100,0.00,40.00,0,-999,0,0.00
2013-3-28,45,36,23,-100,-100,-100,0,0,100,0.00,40.00,0,-999,0,0.00
2013-3-29,51,37,25,-100,-100,-100,0,0,100,0.00,40.00,0,-999,0,0.00
2013-3-30,54,41,25,-100,-100,-100,0,0,100,0.00,40.00,0,-999,0,0.00
2013-3-31,54,43,34,-100,-100,-100,0,0,100,0.00,40.00,0,-999,0,0.00